ECMWFNIL_925_thetae_057.txt.gz
Theta_e
289 288 288 288 288 288 288 288 288 288 287 287 287 287 286 286 286 286 286 286 286 286 286 285 285 285 285 285 285 285 285 285 284 284 284 284 283 283 283 283 283 283
288 288 288 288 288 288 288 288 288 288 287 287 287 287 286 286 286 286 286 286 286 286 285 285 285 285 285 285 285 285 285 284 284 284 284 284 283 283 283 283 283 282
289 288 288 288 288 288 288 287 287 287 287 287 287 287 286 286 286 286 286 286 286 286 285 285 285 285 285 285 285 284 284 284 284 283 283 283 283 283 283 282 282 282
289 288 288 289 289 288 288 287 287 287 287 287 286 286 286 286 286 286 287 287 286 286 286 285 285 285 284 284 284 284 284 284 284 283 283 283 283 283 283 282 282 282
289 289 289 289 289 288 287 287 287 287 287 286 286 286 286 286 287 287 287 287 286 286 285 285 285 284 284 284 284 284 284 284 283 283 283 283 283 283 283 282 282 282
289 289 289 289 288 288 287 287 287 287 287 287 286 286 286 287 287 287 287 287 286 286 285 285 285 284 284 284 283 284 283 283 283 283 283 283 283 282 282 282 282 282
289 289 289 288 288 287 287 287 287 287 287 287 287 286 286 287 287 287 287 286 286 286 285 285 284 284 284 283 283 283 283 283 283 283 283 282 282 282 282 282 282 281
289 288 288 288 287 287 287 287 287 287 287 287 287 286 287 287 288 287 287 286 286 286 285 284 284 284 284 283 283 283 283 283 283 282 282 282 282 282 282 281 281 281
288 288 287 287 287 287 287 287 287 287 287 287 287 287 287 287 287 287 287 286 286 285 285 284 284 283 283 283 283 283 283 282 282 282 282 282 282 281 281 281 281 281
287 287 287 287 287 287 287 287 287 287 287 287 287 287 287 287 287 287 286 286 285 285 284 284 283 283 283 283 282 282 282 282 282 282 282 281 281 281 281 281 280 280
287 287 287 287 287 287 287 287 287 287 286 287 287 287 287 287 287 286 286 286 285 284 284 283 283 283 283 282 282 282 282 282 281 281 281 281 281 280 280 280 280 280
287 287 287 287 287 287 287 287 287 287 287 287 287 287 287 287 287 286 286 285 285 284 283 283 283 282 282 282 282 282 282 281 281 281 281 281 280 280 280 280 280 279
287 287 287 287 287 287 287 287 287 287 287 287 287 287 287 287 286 286 286 285 284 284 284 283 282 282 282 282 282 281 281 281 281 281 280 280 280 280 280 280 279 279
287 287 287 287 287 287 287 287 287 287 287 287 287 287 287 286 286 286 285 285 284 284 283 283 282 282 282 282 281 281 280 280 280 280 280 280 280 279 279 279 279 279
287 287 287 287 287 287 287 287 287 287 287 287 287 286 286 286 286 285 285 284 284 284 283 283 283 283 282 281 281 280 280 280 280 280 280 280 279 279 279 279 279 278
287 287 287 287 287 287 287 287 287 287 287 287 287 286 286 286 286 285 285 285 284 284 283 283 283 283 282 281 280 280 280 280 280 279 279 279 279 279 279 279 278 278
286 287 287 287 287 287 287 287 286 286 287 287 286 286 286 286 286 286 285 285 285 284 283 283 283 282 282 280 280 280 280 280 279 279 279 279 279 279 279 278 278 278
286 286 286 286 286 287 287 286 286 286 287 286 286 286 286 286 286 286 286 285 285 284 283 283 283 282 281 280 279 279 279 279 279 279 279 279 279 279 279 278 278 278
286 286 285 285 286 286 287 286 286 286 286 286 286 286 286 286 286 286 286 285 285 284 284 284 283 282 281 280 279 279 279 279 279 279 279 279 279 279 278 278 278 278
285 285 285 285 285 286 286 286 286 286 286 286 286 286 286 286 286 286 286 286 285 285 284 284 283 282 281 280 279 278 278 278 279 279 279 279 279 278 278 278 277 277
285 285 285 284 284 284 285 286 286 286 286 286 286 286 286 286 286 286 286 285 285 285 284 284 283 282 281 279 279 278 278 278 279 279 279 279 278 278 277 277 277 276
285 285 284 284 284 284 284 285 286 286 286 286 286 286 286 286 286 286 286 285 285 284 284 284 284 282 281 279 279 278 278 278 279 279 279 278 278 277 277 276 276 276
285 285 284 284 284 283 284 285 285 286 286 286 286 286 285 286 286 286 286 285 285 284 284 284 284 282 281 280 279 278 278 278 279 279 278 278 277 277 276 276 276 275
285 285 285 284 284 284 284 284 285 286 286 286 286 286 286 286 286 286 285 285 285 284 284 284 284 282 281 280 279 278 277 278 278 278 277 277 276 276 276 276 276 275
286 285 285 284 284 284 284 285 285 285 286 286 286 286 286 286 286 285 285 285 285 284 284 284 284 282 281 280 280 278 277 278 278 277 277 277 276 276 276 275 275 275
286 285 285 285 284 284 285 285 284 284 285 285 285 285 285 285 285 285 285 285 285 284 284 284 284 283 281 280 280 278 277 277 277 277 277 277 276 276 275 275 274 275

ECMWFNIL_925_thetae_060.txt.gz
Theta_e
291 291 290 289 289 289 289 289 289 289 289 288 288 288 287 287 287 287 287 286 286 286 286 286 286 286 286 285 285 285 285 285 285 285 285 285 284 284 284 283 283 283
291 290 290 289 289 289 289 289 289 289 289 288 288 288 287 287 287 286 286 286 286 286 286 286 286 285 286 285 285 286 286 285 285 285 284 284 284 284 283 283 283 282
290 289 289 289 289 289 289 289 289 289 288 288 288 288 287 287 286 286 286 286 286 286 286 285 285 285 285 285 285 285 285 285 285 284 284 284 284 283 283 283 282 282
290 289 289 290 289 289 289 288 288 288 288 288 288 288 287 287 286 286 286 286 286 286 286 285 285 285 285 286 286 285 285 285 285 284 284 283 283 283 283 283 282 282
289 289 289 289 289 289 288 288 288 288 288 288 288 287 287 287 286 286 286 286 286 286 286 286 285 286 286 286 286 285 285 285 284 284 283 283 283 283 283 282 282 282
289 289 289 289 289 288 288 288 288 288 288 288 288 287 287 287 286 286 286 286 286 286 286 286 286 286 286 286 285 285 284 284 284 284 283 283 283 283 282 282 282 281
289 289 289 289 288 288 288 288 288 288 288 288 287 287 287 287 286 286 286 286 286 286 286 285 286 286 286 286 285 285 284 284 283 283 283 283 283 282 282 282 281 281
289 289 288 288 288 288 288 288 288 288 288 288 287 287 287 287 287 287 287 286 286 286 285 285 285 286 286 286 285 285 284 283 283 283 283 282 282 282 282 282 281 281
289 289 288 288 288 287 287 288 288 288 288 287 287 287 286 286 287 287 286 286 285 285 285 285 286 286 285 285 285 284 284 283 283 282 282 282 282 282 282 281 281 281
289 288 288 288 288 287 287 287 287 287 287 287 287 287 286 286 286 286 286 285 285 285 285 285 286 286 285 285 284 284 283 283 282 282 282 282 282 282 281 281 281 280
289 288 288 288 288 287 287 287 287 287 287 287 287 287 286 286 286 286 285 285 285 285 285 286 286 286 285 285 284 283 283 282 282 282 282 282 281 281 281 281 280 280
289 288 288 288 288 288 287 287 287 287 287 287 287 287 286 286 286 286 285 285 285 285 286 286 286 285 285 284 284 283 283 282 282 281 281 281 281 281 281 280 280 280
289 288 288 288 288 288 287 287 287 287 287 287 286 286 286 286 286 286 285 285 285 285 286 286 286 285 285 284 283 283 282 282 282 281 281 281 281 281 280 280 280 280
288 288 288 288 288 287 287 286 287 287 287 287 286 286 286 287 286 286 285 284 285 285 286 286 285 285 285 284 283 283 282 282 281 281 281 281 280 280 280 280 280 279
288 287 288 287 287 286 286 286 286 287 287 286 286 286 287 287 286 285 285 284 285 285 286 285 285 285 285 284 283 283 282 282 281 281 281 280 280 280 280 280 279 279
287 287 287 287 286 286 286 286 286 287 286 286 286 286 286 286 286 285 285 285 285 285 286 285 285 285 284 284 283 283 282 282 281 281 281 280 280 280 280 279 279 279
286 286 286 286 286 286 286 286 286 286 286 286 286 286 286 286 285 285 285 285 285 286 286 286 286 285 284 283 283 283 282 282 281 281 281 280 280 280 279 279 279 279
286 286 285 285 285 285 286 286 286 286 286 286 286 286 286 285 285 285 285 285 285 286 286 286 286 285 284 283 283 283 282 281 281 281 281 280 280 280 279 279 279 279
285 285 285 285 285 285 286 286 286 286 286 286 286 286 285 285 284 284 285 285 285 286 286 286 286 285 284 283 283 283 282 282 281 282 282 281 280 280 279 279 279 279
285 285 285 285 285 285 285 285 285 286 286 286 286 285 285 284 284 284 285 285 286 286 286 286 286 285 284 283 283 283 282 282 282 282 282 281 280 280 279 279 279 279
285 285 285 284 284 284 284 284 285 286 286 286 285 285 285 285 285 285 285 285 286 286 286 286 286 285 284 284 283 283 282 281 282 283 283 282 281 280 279 279 279 279
285 285 284 284 284 284 283 284 284 285 285 285 285 284 285 285 285 285 285 286 286 286 286 286 286 285 284 284 283 283 281 280 281 283 283 283 282 280 280 279 279 279
285 285 284 284 284 283 283 284 284 284 284 284 284 284 284 285 285 285 285 286 286 286 286 286 286 285 285 284 283 282 281 280 281 282 282 283 282 281 280 279 279 278
285 285 285 284 284 283 284 284 284 284 284 284 284 284 285 285 285 285 285 285 285 286 286 286 286 286 285 284 284 282 281 281 281 281 282 282 282 281 280 279 279 279
286 285 285 285 284 284 284 284 283 283 283 283 284 284 285 285 285 285 285 285 285 285 285 285 286 285 285 284 284 282 280 280 280 280 281 282 282 281 280 279 279 279
286 286 285 285 285 285 284 284 284 283 283 283 283 283 283 283 283 284 284 285 285 285 285 285 285 285 285 284 283 282 280 280 280 280 281 282 282 281 280 279 279 279

ECMWFNIL_925_thetae_063.txt.gz
Theta_e
301 300 298 294 292 291 290 290 290 290 290 290 290 289 289 289 288 288 288 288 288 288 287 287 287 287 287 287 287 287 287 286 286 285 285 285 285 285 285 285 284 284
299 298 295 292 291 290 290 290 290 291 290 290 290 289 289 288 288 288 288 287 287 287 287 287 287 287 287 287 287 287 286 286 286 285 285 285 285 285 285 284 284 284
296 294 292 291 290 290 290 290 290 291 290 290 289 289 288 288 288 287 287 287 287 287 287 286 286 287 287 287 286 286 286 286 285 285 284 285 285 284 284 284 284 283
293 291 290 290 290 290 290 290 290 290 290 289 289 288 288 288 287 287 287 287 287 287 286 286 286 287 287 286 286 286 285 285 285 285 284 284 284 284 284 284 283 283
291 290 290 290 290 290 290 290 290 289 289 289 288 288 288 288 287 287 287 287 286 286 286 286 286 286 286 286 286 285 285 285 285 285 284 284 284 284 284 283 283 283
290 289 289 289 290 290 290 290 290 289 289 288 288 288 288 287 287 287 287 287 286 286 286 286 286 286 286 286 285 285 285 285 285 284 284 284 284 283 283 283 283 283
289 289 289 289 289 290 290 290 289 289 288 288 288 288 287 287 287 287 287 287 286 286 287 286 286 286 286 285 285 285 284 284 284 284 284 284 284 283 283 283 283 282
289 289 288 288 289 289 289 289 289 288 288 288 288 287 287 287 287 287 287 286 286 286 286 286 286 286 286 285 285 284 284 284 284 284 284 284 283 283 283 283 282 282
288 288 288 288 288 289 289 289 288 288 288 288 288 287 287 287 287 287 286 286 286 286 286 286 286 286 286 285 284 284 284 284 284 284 284 284 283 283 283 282 282 282
288 288 288 288 288 288 288 288 288 288 287 287 287 287 287 286 286 286 286 286 286 286 286 286 286 286 286 285 284 284 284 284 284 284 284 283 283 283 282 282 282 282
288 288 288 288 288 288 288 288 287 287 287 287 287 287 287 286 286 286 286 286 286 286 286 286 286 286 286 285 284 284 284 284 284 284 284 283 283 282 282 282 282 282
288 288 288 287 287 287 288 287 287 287 287 287 287 287 286 286 286 286 286 286 286 286 287 287 286 286 285 285 284 283 283 283 283 283 283 283 282 282 282 282 282 281
288 288 288 287 287 287 287 287 287 286 286 286 286 286 286 286 286 286 286 286 286 286 286 286 286 286 285 284 284 283 284 284 283 283 283 282 282 282 282 282 281 281
289 288 287 287 287 287 287 287 286 286 286 286 286 286 286 286 286 286 285 285 285 285 286 286 286 285 285 284 283 283 284 284 284 284 283 282 282 282 281 281 281 281
288 287 287 287 286 286 286 286 286 286 286 286 286 286 286 286 286 285 285 285 285 285 285 285 285 285 285 284 283 284 284 284 284 284 283 282 282 282 281 281 281 281
288 287 287 286 286 286 286 286 286 286 285 285 285 285 285 285 285 285 285 285 285 285 285 285 285 285 284 284 284 284 285 285 284 284 284 282 282 282 281 281 281 281
287 287 286 286 286 286 286 286 286 285 285 285 285 285 285 285 285 285 285 285 285 285 285 285 285 285 284 284 284 284 285 285 285 285 284 283 282 282 282 282 281 281
287 287 286 286 286 286 286 286 285 285 284 284 284 285 285 285 285 285 285 285 285 285 285 285 285 284 284 283 283 284 285 285 285 285 284 283 282 282 282 282 282 281
287 286 286 286 286 286 286 286 285 285 284 284 285 285 285 285 285 285 285 285 285 285 285 285 285 284 284 283 284 285 286 286 285 285 284 283 282 282 282 282 282 281
286 286 286 286 286 286 286 285 285 285 284 284 284 284 285 285 285 285 285 285 285 285 285 285 285 284 284 283 284 285 286 286 285 285 284 283 283 282 282 282 282 282
286 286 286 286 286 286 285 285 285 284 284 284 284 284 285 285 285 285 285 285 285 285 285 285 285 285 284 284 285 286 287 286 285 284 284 283 283 283 282 282 282 282
286 286 286 286 285 285 284 284 284 284 284 284 284 284 285 285 285 285 285 285 285 284 284 285 285 285 284 284 285 286 286 285 285 285 284 283 283 283 283 283 282 282
287 286 286 286 285 284 284 284 284 284 284 284 284 284 284 285 285 286 285 285 285 284 284 285 285 285 284 284 284 285 285 284 284 285 284 284 284 284 283 283 283 282
287 286 286 285 285 285 285 285 285 284 284 283 284 284 284 285 285 285 284 284 284 284 285 285 285 285 285 284 283 282 282 282 283 283 284 284 284 284 284 283 283 283
287 286 286 286 286 286 286 286 285 284 284 283 283 283 284 284 284 283 283 283 284 284 284 284 284 285 284 284 283 281 281 281 282 282 282 283 284 284 284 284 284 283
287 287 287 287 287 287 286 286 285 284 283 283 283 283 283 283 282 282 282 283 283 283 283 283 284 284 284 284 283 281 280 280 280 281 281 282 283 284 284 284 284 284

ECMWFNIL_925_thetae_069.txt.gz
Theta_e
304 306 307 308 309 310 311 311 312 314 312 311 311 309 307 303 295 291 291 291 291 291 291 291 291 291 291 291 291 291 291 290 290 290 290 289 289 289 288 288 287 287
304 305 306 306 307 308 309 309 311 313 312 311 310 308 306 301 293 290 291 290 290 291 291 291 291 291 291 291 291 290 290 290 289 289 288 288 288 287 287 287 286 286
304 305 306 306 307 307 307 307 308 309 309 307 306 306 304 298 291 290 290 290 290 290 290 290 290 290 290 290 290 289 289 289 288 288 287 287 287 286 286 286 286 285
303 304 305 305 306 306 305 305 305 305 305 303 302 302 300 294 290 290 290 289 290 290 290 290 290 289 289 289 289 288 288 288 287 287 286 286 286 286 286 285 285 285
303 303 303 304 304 303 302 302 303 304 303 301 299 298 295 291 290 290 289 289 289 289 289 289 289 289 288 288 288 287 287 287 286 286 286 286 285 285 285 285 285 285
301 302 302 304 304 303 302 302 303 303 302 300 298 295 292 290 290 289 289 289 289 289 289 288 288 288 287 287 287 287 287 286 286 285 285 286 285 285 285 285 285 285
300 301 302 302 302 302 302 302 301 300 299 297 295 292 290 290 290 289 289 289 288 288 288 288 288 287 287 287 287 286 286 286 286 285 285 285 285 285 285 285 285 285
301 302 301 300 300 300 300 299 298 297 296 294 292 290 290 289 289 289 289 288 288 288 288 287 287 287 287 286 286 286 286 286 285 285 285 285 285 285 285 285 285 285
299 300 300 298 298 298 298 299 298 295 294 292 290 289 289 289 289 289 288 288 288 288 287 287 287 286 286 286 286 286 286 285 285 285 285 285 285 285 285 285 285 285
297 297 298 296 296 296 297 299 298 295 293 291 289 289 289 288 288 288 288 288 288 287 287 287 286 286 286 286 286 286 285 285 285 285 285 285 285 285 285 285 285 284
296 296 296 295 295 295 296 297 296 295 292 290 288 288 288 288 288 288 288 287 287 287 287 286 286 286 286 286 286 285 285 285 285 285 285 285 285 285 285 285 285 284
294 294 294 295 295 294 294 294 294 293 292 289 288 288 288 287 287 287 287 287 287 287 287 286 286 286 286 286 286 285 285 285 285 285 285 285 284 285 285 284 284 284
293 292 293 294 294 293 293 293 293 292 291 289 288 287 287 287 287 287 287 287 287 287 286 286 286 286 286 286 285 285 285 285 284 284 284 284 284 284 284 284 284 284
292 292 292 293 293 292 292 291 291 290 289 288 288 287 287 287 287 287 287 287 286 286 286 286 286 286 286 285 285 285 285 284 284 284 284 284 284 284 284 284 284 284
293 292 292 291 291 291 290 289 289 288 288 287 287 287 287 287 287 287 287 287 286 286 286 286 286 286 286 285 285 285 285 284 284 284 284 284 284 284 284 284 284 284
292 293 292 291 290 290 290 289 288 287 287 287 286 286 287 287 287 286 286 286 286 286 286 286 285 285 285 285 285 285 285 285 284 284 284 284 285 284 284 284 284 285
291 292 292 292 291 290 289 288 288 287 286 286 286 286 286 286 286 286 286 286 286 286 286 285 285 285 285 285 285 285 285 285 284 284 285 286 285 284 284 284 285 286
291 290 291 291 291 290 289 288 287 287 286 285 285 285 285 285 285 285 286 286 285 285 285 285 285 285 285 285 285 285 285 284 284 285 286 287 286 284 283 284 285 287
290 290 289 290 290 290 289 287 286 286 285 285 285 285 285 284 285 285 285 285 285 285 285 285 285 285 285 285 285 285 285 284 285 287 288 288 286 284 283 283 284 287
289 289 289 289 289 288 287 286 286 285 285 285 285 285 284 284 284 284 284 284 284 285 285 285 285 285 285 285 285 285 284 284 286 288 289 288 286 284 283 282 284 285
289 288 288 287 287 286 285 285 285 285 285 284 284 284 284 284 284 284 284 284 284 284 284 285 285 285 285 285 285 284 284 286 288 289 289 288 287 285 284 283 284 284
289 288 287 287 286 285 285 284 284 284 284 284 284 283 283 283 283 283 283 283 283 284 284 284 284 284 284 285 285 284 285 287 289 289 289 288 288 287 286 285 285 284
289 289 288 287 286 286 285 285 284 284 284 284 284 283 283 282 282 282 282 282 283 283 283 283 283 284 284 284 284 285 287 289 289 289 288 288 288 288 288 287 286 285
289 288 288 287 287 286 286 285 285 285 284 284 284 283 283 283 282 282 282 282 282 283 283 283 283 284 284 284 285 287 289 290 289 288 287 287 287 287 288 288 287 286
289 289 288 288 287 286 286 286 285 285 285 285 284 284 284 284 284 283 283 283 283 283 283 283 283 284 284 284 286 288 289 290 289 287 286 285 285 286 286 286 286 285
289 289 288 288 288 287 286 286 286 286 286 286 286 286 286 285 284 284 283 283 283 283 284 283 283 283 284 285 287 289 290 290 288 286 285 285 285 284 284 284 284 284

ECMWFNIL_925_thetae_072.txt.gz
Theta_e
308 309 310 311 312 312 313 315 315 315 315 315 315 316 316 316 315 314 313 309 303 298 297 297 297 299 300 302 303 304 304 303 302 301 300 299 299 299 298 296 293 290
308 310 311 311 311 311 311 312 313 313 314 315 315 315 316 316 314 314 313 306 298 295 295 295 297 299 301 302 303 303 302 301 300 300 299 297 296 296 295 293 290 288
307 308 309 310 310 311 311 310 310 311 313 314 313 312 313 314 313 312 309 302 296 294 293 293 296 298 300 302 302 301 301 300 298 296 294 293 292 292 290 289 288 288
304 306 308 309 309 310 310 310 309 310 311 311 310 309 310 310 310 308 304 299 295 293 292 292 293 296 299 300 300 299 297 295 293 291 290 290 289 289 288 288 288 287
302 304 306 307 308 307 308 308 308 309 310 309 308 307 307 307 307 306 302 297 294 292 291 291 291 292 294 294 294 293 291 290 289 289 288 288 288 288 288 287 287 287
301 303 305 306 306 305 306 307 308 309 309 309 307 306 306 305 305 304 302 297 294 291 290 290 290 290 290 290 289 289 288 288 288 288 288 288 288 287 287 287 286 286
301 302 304 305 304 304 304 306 307 308 309 308 306 306 306 304 301 300 299 295 292 290 290 289 289 289 288 288 288 288 288 288 288 288 288 288 287 287 286 286 285 285
301 302 303 303 302 302 303 303 304 306 306 305 304 304 304 303 300 298 295 292 290 289 289 289 289 289 288 288 288 288 288 288 288 288 287 287 287 286 286 285 285 285
301 301 302 301 300 300 301 301 302 304 304 302 301 302 302 301 300 297 293 290 289 289 289 289 289 288 288 288 288 288 288 288 288 287 287 287 286 286 285 285 285 284
299 299 299 299 299 299 299 299 300 302 302 300 300 300 299 297 296 294 291 289 288 289 289 288 288 288 288 288 288 288 288 288 287 287 287 286 286 285 285 285 285 284
298 297 297 298 298 298 298 298 300 301 300 299 299 297 295 294 293 291 289 288 288 288 288 288 288 288 288 288 288 287 287 287 287 286 286 286 286 285 285 285 285 285
297 296 296 297 297 297 297 298 299 299 297 297 298 296 293 292 292 290 288 288 288 288 288 288 288 288 288 288 287 287 287 287 286 286 286 286 285 285 285 285 284 284
296 296 297 297 297 297 297 297 298 297 295 295 297 296 293 291 291 290 288 288 288 288 288 288 288 287 287 287 287 287 287 286 286 286 285 285 285 285 284 284 284 284
297 297 297 297 297 297 297 296 296 296 295 294 294 294 293 291 291 290 289 288 287 287 287 287 287 287 287 287 287 287 287 286 286 285 285 285 285 284 284 284 284 284
297 298 298 297 296 295 294 294 295 295 294 293 293 293 292 290 290 289 288 287 287 287 287 287 287 287 287 287 287 287 286 286 286 285 285 285 284 284 284 284 284 285
295 296 296 296 295 294 293 293 293 293 292 292 292 291 289 287 287 287 286 286 287 287 286 286 286 287 287 287 287 287 286 286 286 285 285 284 284 284 284 285 285 286
294 294 294 293 293 292 292 292 291 290 290 290 289 287 286 286 286 286 286 286 286 286 286 286 286 287 287 287 287 287 286 286 286 285 285 284 284 284 285 286 286 286
293 293 292 292 292 291 291 291 290 289 288 287 287 286 286 285 285 286 286 285 285 286 286 286 286 286 286 286 286 286 286 286 285 285 284 284 284 284 286 287 288 288
292 292 291 291 290 290 290 290 289 288 287 286 286 286 286 285 285 285 284 284 284 285 285 285 286 286 286 285 285 285 285 285 285 284 284 284 284 285 287 289 289 289
292 291 291 290 290 289 288 288 287 287 287 287 286 285 285 284 284 284 284 284 284 284 284 285 285 286 286 285 285 285 285 285 284 284 285 285 285 286 287 289 290 290
291 291 290 289 289 288 287 286 286 286 286 285 285 285 285 284 284 283 284 284 283 283 284 284 285 285 285 285 285 285 285 284 284 285 285 285 285 286 287 289 291 291
291 290 290 289 288 288 287 286 286 285 285 285 284 285 285 284 283 283 283 283 283 282 283 284 284 284 285 285 285 284 284 284 284 285 285 285 285 286 286 289 291 291
291 290 289 289 288 287 287 286 286 285 285 285 284 284 284 284 283 283 282 282 282 282 282 283 283 283 283 284 284 283 283 283 284 285 285 285 285 285 286 289 291 291
291 290 289 289 288 287 287 286 286 285 285 285 284 284 284 283 283 282 282 282 282 282 282 282 282 282 282 282 282 282 282 283 284 285 285 285 286 286 287 289 290 291
290 290 289 289 288 287 287 286 286 285 285 285 284 284 284 283 283 283 282 282 282 282 282 282 282 282 282 282 282 282 282 283 284 284 285 285 286 287 288 289 290 290
290 289 289 289 288 287 287 286 286 285 284 284 284 284 284 284 283 283 283 283 282 282 282 282 283 283 282 282 283 283 283 284 283 284 285 286 288 288 288 288 289 289

ECMWFNIL_925_thetae_075.txt.gz
Theta_e
311 310 310 311 311 310 310 312 314 315 316 317 317 317 318 318 318 318 317 317 316 315 313 311 309 307 307 307 305 304 305 306 306 305 305 303 302 301 300 299 297 296
311 310 309 310 310 310 310 312 313 314 314 315 314 315 317 317 317 317 316 316 315 313 310 308 306 306 305 305 304 304 304 304 304 304 303 302 301 300 299 298 297 296
309 310 309 309 309 310 311 311 312 312 312 312 309 310 313 315 315 315 314 314 313 312 311 308 306 305 304 302 302 302 302 302 302 302 302 300 300 299 298 298 297 295
307 308 309 309 309 310 311 311 311 310 310 310 308 307 310 312 313 313 312 311 309 309 309 308 306 304 301 299 299 300 300 300 301 301 300 299 298 298 297 297 296 294
305 306 307 308 308 309 309 309 310 310 309 309 308 308 309 310 311 311 310 308 306 306 306 306 305 301 298 296 297 298 298 298 299 299 298 298 297 297 296 296 294 291
305 305 306 307 308 308 308 309 310 310 310 309 308 308 308 308 309 310 309 307 305 303 303 303 301 297 295 296 296 297 297 297 297 297 297 297 296 295 294 292 290 288
304 305 305 306 307 309 309 310 310 309 309 309 308 306 305 305 307 307 306 304 302 299 299 299 298 295 294 296 296 296 296 296 296 296 296 296 294 292 290 289 288 287
304 304 304 304 305 306 306 307 309 308 307 307 305 304 304 304 305 305 303 301 298 295 294 294 294 293 293 294 295 295 296 296 296 295 294 292 291 289 287 287 287 287
303 303 303 303 303 303 302 303 307 307 306 305 304 303 303 303 303 303 302 298 295 292 291 291 292 292 292 292 294 295 295 295 294 293 291 289 288 287 287 287 286 286
302 302 302 302 301 301 300 301 304 305 304 303 302 301 301 302 302 301 299 297 293 290 290 290 290 291 290 290 291 292 293 292 290 289 288 288 288 287 287 287 286 286
301 301 301 301 300 300 300 301 302 302 301 301 300 300 301 302 301 299 298 296 294 291 290 289 290 290 289 289 289 290 290 289 288 288 288 287 287 287 287 287 286 286
301 301 301 301 300 299 300 301 300 300 300 300 300 300 300 300 299 298 297 297 296 294 292 290 289 289 288 288 289 288 288 288 288 288 288 287 287 287 287 287 287 286
300 300 300 300 300 299 300 300 299 298 299 299 299 298 298 298 298 298 297 296 295 293 291 290 289 288 288 288 288 288 288 288 288 287 287 287 287 287 286 286 286 286
299 299 299 299 299 299 299 298 298 297 297 298 298 296 297 299 299 298 297 295 293 291 290 289 288 288 288 288 287 288 287 287 287 287 287 287 287 286 286 286 286 285
299 298 298 298 298 297 297 297 297 297 296 297 297 296 296 297 296 295 294 292 290 289 288 288 288 287 287 287 287 287 287 287 287 287 287 287 286 286 285 285 285 285
299 297 297 297 297 297 296 297 296 295 295 295 295 295 295 294 292 292 292 290 288 287 287 287 287 287 287 288 288 288 287 287 287 287 287 287 286 286 285 285 284 284
298 297 297 297 297 296 296 296 295 294 294 293 293 293 293 291 291 291 290 289 287 286 286 286 286 287 287 287 287 287 287 287 287 287 286 286 286 286 285 285 284 284
297 296 296 296 296 296 296 295 294 293 292 292 291 291 291 290 290 289 289 287 286 285 285 286 286 286 287 286 287 287 287 287 287 286 286 286 286 286 285 285 284 284
297 296 295 295 295 295 295 294 293 292 291 291 291 291 290 289 288 288 287 285 285 285 285 285 285 285 286 286 286 286 286 286 286 286 286 286 286 285 285 284 284 285
296 295 294 294 294 294 293 292 291 291 290 290 290 289 288 287 287 287 286 285 285 284 285 285 285 285 285 285 285 286 286 286 286 286 286 286 286 285 285 284 284 285
295 294 294 293 293 293 292 291 291 290 290 289 289 289 288 287 287 286 285 285 284 284 285 285 285 285 284 285 285 285 285 285 285 285 285 285 285 285 285 284 284 286
294 294 293 293 292 292 291 290 290 289 289 288 288 287 287 287 286 286 285 285 284 284 284 284 285 284 284 284 284 284 284 284 284 284 284 284 284 284 284 284 284 286
294 293 292 292 291 290 290 289 289 288 288 287 287 286 286 286 285 285 285 285 284 284 284 284 284 284 283 283 283 283 283 283 283 283 284 284 284 284 284 284 285 287
293 293 292 291 290 290 289 288 288 287 287 287 286 286 285 285 285 284 284 284 284 284 284 284 283 283 283 283 283 282 283 283 283 283 283 283 283 283 284 285 286 288
293 292 292 291 290 289 289 288 287 287 287 286 286 286 285 285 284 284 284 284 284 284 284 283 283 283 282 282 282 282 282 282 282 282 282 282 283 283 284 285 286 287
292 292 291 291 290 289 288 288 287 287 286 286 285 285 285 285 284 284 284 283 283 283 283 283 283 283 282 282 283 283 283 282 282 282 282 283 283 284 284 285 286 287